New Paris, IN

10:23 PM EST on December 04, 2016 (GMT -0500)
Goshen Municipal

Weather History for KGSH - December, 2012

Change the Weather History Date:

Wednesday, December 5, 2012

  Actual Average Record
Temperature  
Mean Temperature 34 °F -  
Max Temperature 39 °F 39 °F 68 °F (2001)
Min Temperature 28 °F 26 °F 3 °F (2005)
Degree Days  
Heating Degree Days 32    
Moisture  
Dew Point 24 °F    
Average Humidity 68    
Maximum Humidity 76    
Minimum Humidity 54    
Precipitation  
Precipitation 0.00 in - - ()
Sea Level Pressure  
Sea Level Pressure 30.36 in    
Wind  
Wind Speed 9 mph (NE)    
Max Wind Speed 14 mph    
Max Gust Speed 17 mph    
Visibility 10 miles    
Events      
Averages and records for this station are not official NWS values.
T = Trace of Precipitation, MM = Missing Value Source: NWS Daily Summary

Daily Weather History Graph

Daily Weather History Graph

Search for Another Location

Airport or City:

Trip Planner

Search our weather history database for the weather conditions in past years. The results will help you decide how hot, cold, wet, or windy it might be!

Date:

Astronomy

Dec. 05, 2012 Rise Set
Actual Time 7:54 AM EST 5:13 PM EST
Civil Twilight 7:23 AM EST 5:44 PM EST
Nautical Twilight 6:48 AM EST 6:18 PM EST
Astronomical Twilight 6:15 AM EST 6:52 PM EST
Moon No Moon Rise 12:14 PM EST
Length of Visible Light 10h 20m
Length of Day
9h 18m
Waning Gibbous, 60% of the Moon is Illuminated
Dec 5
Waning Gibbous
Dec 6
Last Quarter
Dec 13
New
Dec 20
First Quarter
Dec 28
Full

Hourly Weather History & Observations

Time (EST) Temp. Windchill Dew Point Humidity Pressure Visibility Wind Dir Wind Speed Gust Speed Precip Events Conditions
12:53 AM 39.9 °F 33.4 °F 32.0 °F 73% 30.22 in 10.0 mi NW 10.4 mph - N/A   Clear
1:53 AM 37.9 °F 32.1 °F 30.0 °F 73% 30.25 in 10.0 mi NW 8.1 mph 17.3 mph N/A   Clear
2:53 AM 37.0 °F 29.3 °F 28.0 °F 70% 30.29 in 10.0 mi NNW 11.5 mph - N/A   Clear
3:53 AM 35.1 °F 27.4 °F 27.0 °F 72% 30.31 in 10.0 mi NW 10.4 mph - N/A   Clear
4:53 AM 34.0 °F 28.0 °F 27.0 °F 75% 30.32 in 10.0 mi NW 6.9 mph - N/A   Clear
5:53 AM 33.1 °F 25.5 °F 26.1 °F 75% 30.33 in 10.0 mi NNW 9.2 mph - N/A   Clear
6:53 AM 33.1 °F 25.5 °F 25.0 °F 72% 30.35 in 10.0 mi North 9.2 mph - N/A   Clear
7:53 AM 30.9 °F 22.2 °F 24.1 °F 76% 30.38 in 10.0 mi North 10.4 mph - N/A   Clear
9:53 AM 33.1 °F 23.4 °F 23.0 °F 66% 30.43 in 10.0 mi North 13.8 mph - N/A   Clear
10:53 AM 34.0 °F 25.5 °F 23.0 °F 64% 30.43 in 10.0 mi NNE 11.5 mph - N/A   Clear
11:53 AM 35.1 °F 27.9 °F 23.0 °F 61% 30.41 in 10.0 mi NE 9.2 mph - N/A   Clear
12:53 PM 35.1 °F 27.9 °F 23.0 °F 61% 30.40 in 10.0 mi NE 9.2 mph - N/A   Clear
1:53 PM 36.0 °F 31.1 °F 21.9 °F 57% 30.40 in 10.0 mi NNE 5.8 mph - N/A   Clear
2:53 PM 37.0 °F 33.3 °F 21.9 °F 54% 30.38 in 10.0 mi ENE 4.6 mph - N/A   Clear
3:53 PM 37.0 °F 34.5 °F 23.0 °F 57% 30.39 in 10.0 mi East 3.5 mph - N/A   Clear
4:53 PM 34.0 °F 31.0 °F 23.0 °F 64% 30.38 in 10.0 mi East 3.5 mph - N/A   Clear
5:53 PM 33.1 °F 28.7 °F 23.0 °F 66% 30.38 in 10.0 mi East 4.6 mph - N/A   Clear
6:53 PM 32.0 °F 27.5 °F 21.9 °F 66% 30.38 in 10.0 mi ESE 4.6 mph - N/A   Clear
7:53 PM 30.0 °F 23.2 °F 21.0 °F 69% 30.38 in 10.0 mi SE 6.9 mph - N/A   Clear
8:53 PM 30.0 °F 23.2 °F 21.9 °F 72% 30.37 in 10.0 mi SE 6.9 mph - N/A   Clear
9:53 PM 28.9 °F 23.9 °F 21.9 °F 75% 30.35 in 10.0 mi ESE 4.6 mph - N/A   Clear
10:53 PM 28.9 °F 21.9 °F 21.9 °F 75% 30.33 in 10.0 mi SE 6.9 mph - N/A   Clear
11:53 PM 30.0 °F 21.1 °F 21.9 °F 72% 30.31 in 10.0 mi SE 10.4 mph - N/A   Clear